This demonstration page uses our WeatherBlox Daily Observations layout. Learn more.

Left ArrowRight Arrow

39.08367, -84.50855

Hourly Observations for December 17, 2017

Temp ( °F °C ) Dew Point ( °F °C ) Humidity (%) Winds ( mph kmh ) Pressure ( in mb ) Visibility ( mi km ) Precip ( " mm )
12:53 am 00:53 Clear 30 -1.1 26 -3.3 85 85 N N/A 30.22 1023 10 16 N/A
1:53 am 01:53 Clear 27 -2.8 26 -3.3 96 96 N N/A 30.20 1023 10 16 N/A
2:53 am 02:53 Clear 27 -2.8 26 -3.3 96 96 N N/A 30.21 1023 10 16 N/A
3:53 am 03:53 Clear 29 -1.7 27 -2.8 92 92 N N/A 30.21 1023 10 16 N/A
4:53 am 04:53 Clear 30 -1.1 28 -2.2 92 92 N N/A 30.21 1023 10 16 N/A
5:53 am 05:53 Clear 29 -1.7 27 -2.8 92 92 W 5 7 30.20 1023 10 16 N/A
6:53 am 06:53 Clear 31 -0.6 29 -1.7 92 92 N N/A 30.20 1023 10 16 N/A
7:53 am 07:53 Sunny 32 undefined 30 -1.1 92 92 N N/A 30.22 1023 10 16 N/A
8:53 am 08:53 Partly Cloudy 34 1.1 32 undefined 92 92 N N/A 30.22 1023 10 16 N/A
9:53 am 09:53 Mostly Cloudy 38 3.3 33 0.6 83 83 WSW 3 6 30.20 1023 10 16 N/A
10:53 am 10:53 Cloudy 40 4.4 34 1.1 79 79 N N/A 30.19 1023 10 16 N/A
11:53 am 11:53 Cloudy 43 6.1 34 1.1 71 71 N N/A 30.14 1021 10 16 N/A
12:53 pm 12:53 Cloudy 44 6.7 33 0.6 65 65 SSW 5 7 30.16 1021 10 16 N/A
1:53 pm 13:53 Cloudy 46 7.8 33 0.6 61 61 S 5 7 30.15 1021 10 16 N/A
2:53 pm 14:53 Cloudy 47 8.3 34 1.1 61 61 SSE 5 7 30.13 1020 10 16 N/A
3:53 pm 15:53 Cloudy 47 8.3 33 0.6 59 59 SSW 8 13 30.13 1020 10 16 N/A
4:53 pm 16:53 Cloudy 45 7.2 33 0.6 63 63 S 6 9 30.11 1020 10 16 N/A
5:53 pm 17:53 Cloudy 44 6.7 33 0.6 65 65 S 3 6 30.13 1020 10 16 N/A
6:53 pm 18:53 Cloudy 43 6.1 33 0.6 68 68 SSW 3 6 30.12 1020 10 16 N/A
7:53 pm 19:53 Cloudy 44 6.7 34 1.1 68 68 S 7 11 30.13 1020 10 16 N/A
8:53 pm 20:53 Cloudy 43 6.1 35 1.7 74 74 SSW 8 13 30.15 1021 10 16 N/A
9:53 pm 21:53 Cloudy 43 6.1 36 2.2 76 76 SSW 12 19 30.15 1021 10 16 N/A
10:23 pm 22:23 Cloudy 43 6.1 37 2.8 80 80 SSW 9 15 30.15 1021 10 16 N/A
10:53 pm 22:53 Cloudy 43 6.1 38 3.3 82 82 SSW 9 15 30.15 1021 10 16 N/A
11:53 pm 23:53 Cloudy 42 5.6 39 3.9 89 89 SSW 7 11 30.14 1021 10 16 N/A

Powered by AerisWeather